Location: Warwick
(41.7000°N, 71.4170°W)
Time: 17:00:15
(UTC-04:00)

BREEZE-M DEB (TANK) - Visible Passes

Search period start: 01 September 2014 00:00
Search period end: 11 September 2014 00:00
Orbit: 275 x 16074 km, 49.5° (Epoch: 31 August)

Date Brightness Start Highest point End Pass type
(mag) Time Alt. Az. Time Alt. Az. Time Alt. Az.
01 Sep 7.8 01:25:30 10° W 04:10:09 87° SW 04:39:03 10° SE visible
01 Sep 8.6 20:08:54 10° SSW 21:30:15 82° ESE 23:40:19 10° ENE visible
02 Sep 7.7 01:48:04 10° WNW 04:28:49 82° SW 04:55:39 10° SE visible
02 Sep 8.7 20:25:37 10° SSW 21:51:27 87° SE 23:58:47 10° ENE visible
03 Sep 7.6 02:11:13 10° WNW 04:46:48 76° SW 05:12:04 10° SSE visible
03 Sep 8.8 20:42:32 10° SW 22:14:23 89° NW 00:17:05 10° ENE visible
04 Sep 7.5 02:34:54 10° WNW 05:04:10 70° WSW 05:28:19 10° SSE visible
04 Sep 8.7 20:59:40 10° SW 22:39:30 85° NW 00:35:11 10° E visible
05 Sep 7.4 02:59:00 10° WNW 05:20:57 64° WSW 05:44:22 10° SSE visible
05 Sep 8.6 21:17:00 10° SW 23:07:12 82° NNW 00:53:06 10° E visible
06 Sep 7.4 03:23:25 10° WNW 05:37:11 58° WSW 06:00:13 10° S visible
06 Sep 8.4 16:37:25 10° SE 17:40:00 37° E 19:29:29 10° NE visible
06 Sep 8.5 21:34:35 10° WSW 23:37:23 80° NNW 01:10:49 10° E visible
07 Sep 7.3 03:48:01 10° NW 05:52:54 51° WSW 06:15:50 10° S visible
07 Sep 8.4 16:51:11 10° SSE 17:52:55 42° E 19:50:07 10° NE visible
07 Sep 8.4 21:52:26 10° WSW 00:08:17 79° N 01:28:20 10° E visible
08 Sep 7.3 04:12:45 10° NW 06:08:07 45° W 06:31:12 10° SSW visible
08 Sep 8.4 17:05:30 10° SSE 18:06:21 47° E 20:10:20 10° NE visible
08 Sep 8.3 22:10:35 10° WSW 00:37:34 79° N 01:45:39 10° ESE visible
09 Sep 7.3 04:37:35 10° NW 06:22:52 39° W 06:46:16 10° SSW visible
09 Sep 8.4 17:20:14 10° SSE 18:20:23 52° E 20:30:14 10° NE visible
09 Sep 8.2 22:29:03 10° WSW 01:04:17 80° NNE 02:02:47 10° ESE visible
10 Sep 7.3 05:02:34 10° NW 06:37:08 34° W 07:00:56 10° SSW visible
10 Sep 8.4 17:35:18 10° S 18:35:06 58° E 20:49:51 10° ENE visible
10 Sep 9.4 22:47:51 10° W 00:00:00 54° WNW 00:00:00 54° WNW visible
